Tracking 19562 objects as of 25-Mar-2019
HD Live streaming from Space Station
objects crossing your sky now

MBSAT

Track MBSAT now!
MBSAT is classified as:


NORAD ID: 28184
Int'l Code: 2004-007A
Perigee: 35,786.4 km
Apogee: 35,802.0 km
Inclination: 0.0 °
Period: 1,436.1 minutes
Semi major axis: 42165 km
RCS: 8.9125 m2 (large)
Launch date: March 13, 2004
Source: Japan (JPN)
Launch site: AIR FORCE EASTERN TEST RANGE (AFETR)

CD-quality radio and data to cellular phones and other portable devices in Japan and South Korea.
aabbcc
Your satellite tracking list
Your tracking list is empty




NASA's NSSDC Master Catalog

Two Line Element Set (TLE):
1 28184U 04007A   19084.11246618  .00000019  00000-0  00000+0 0  9994
2 28184   0.0045 193.4557 0001851 174.3578 275.9819  1.00270282 55090
Source of the keplerian elements: AFSPC